Flag for Italy Weather past 2 weeks in Cagliari, Italy

Now
66 °F

Passing clouds.


Feels Like: 66 °F
Forecast: 58 / 74 °F
Wind: 6 mph from Northwest

Location: Cagliari / Elmas

Current Time: May 23, 2015 at 10:06:46 AM

Latest Report: May 23, 2015 at 9:20 AM


Visibility: N/A

Pressure: 29.95 "Hg

Humidity: 64%

Dew point: 54 °F

Location of CagliariLocation

Historic Weather in Cagliari — Graph

°F

Cagliari temperature yesterday

Maximum temperature yesterday: 72 °F (at 2:20 PM)
Minimum temperature yesterday: 54 °F (at 6:20 AM)
Average temperature yesterday: 62 °F

Past Weeks' High & Low Weather Summary

 TemperatureHumidityPressure
High91 °F (May 14, 4:20 PM)94% (May 10, 2:50 AM)30.27 "Hg (May 10, 2:50 AM)
Low50 °F (May 17, 6:50 AM)15% (May 14, 4:50 PM)29.71 "Hg (May 15, 5:50 AM)
Average67 °F63%30.02 "Hg
* Reported May 8 8:20 AM — May 23 8:50 AM, Cagliari, Weather by CustomWeather, © 2015

Note: Actual official high and low records may vary slightly from our data, if they occured in-between our weather recording intervals... More about our weather records

Advertising

Cagliari weather history for previous 24 hours

 ConditionsComfort  
Time TempWeatherWind HumidityBarometerVisibility
8:50 AM
Sat, May 23
64 °FPassing clouds.7 mph68%29.95 "HgN/A
8:20 AM63 °FPassing clouds.9 mph73%29.95 "HgN/A
7:50 AM61 °FSunny.8 mph77%29.95 "Hg10 mi
7:20 AM59 °FSunny.7 mph77%29.95 "Hg10 mi
6:50 AM57 °FClear.7 mph82%29.95 "Hg10 mi
6:20 AM55 °FPassing clouds.7 mph88%29.95 "HgN/A
5:50 AM55 °FPassing clouds.8 mph82%29.95 "HgN/A
5:20 AM55 °FPassing clouds.9 mph82%29.95 "Hg4 mi
4:50 AM55 °FClear.7 mph82%29.95 "Hg10 mi
4:20 AM54 °FClear.6 mph82%29.95 "Hg10 mi
3:50 AM54 °FClear.8 mph88%29.98 "Hg10 mi
3:20 AM54 °FClear.7 mph88%29.98 "Hg10 mi
2:50 AM54 °FClear.6 mph82%29.98 "Hg10 mi
2:20 AM55 °FClear.7 mph82%29.98 "Hg10 mi
1:50 AM54 °FClear.5 mph82%30.01 "Hg10 mi
1:20 AM55 °FClear.7 mph82%30.01 "Hg10 mi
12:50 AM55 °FClear.6 mph82%30.01 "Hg10 mi
12:20 AM55 °FClear.6 mph82%30.01 "Hg10 mi
11:50 PM
Fri, May 22
57 °FPassing clouds.6 mph77%30.01 "HgN/A
10:50 PM59 °FClear.9 mph77%30.01 "Hg10 mi
10:20 PM59 °FClear.9 mph72%30.01 "Hg10 mi
9:50 PM59 °FClear.9 mph72%30.01 "Hg10 mi
9:20 PM61 °FPassing clouds.10 mph68%30.01 "HgN/A
8:50 PM61 °FSunny.10 mph68%29.98 "Hg10 mi
8:20 PM64 °FSunny.12 mph56%29.98 "Hg10 mi
7:50 PM64 °FSunny.14 mph56%29.98 "Hg10 mi
7:20 PM66 °FSunny.16 mph49%29.98 "Hg10 mi
6:50 PM68 °FPassing clouds.15 mph43%29.95 "HgN/A
6:20 PM68 °FPassing clouds.16 mph40%29.98 "HgN/A
5:50 PM70 °FPassing clouds.15 mph38%29.98 "HgN/A
5:20 PM70 °FPassing clouds.17 mph38%29.98 "HgN/A
4:50 PM66 °FScattered clouds.14 mph60%29.98 "HgN/A
4:20 PM63 °FScattered clouds.18 mph73%29.98 "HgN/A
3:50 PM70 °FScattered clouds.18 mph46%29.95 "HgN/A
3:20 PM70 °FScattered clouds.21 mph38%29.95 "HgN/A
2:50 PM68 °FScattered clouds.20 mph43%29.95 "HgN/A
2:20 PM72 °FScattered clouds.18 mph38%29.95 "HgN/A
1:50 PM70 °FScattered clouds.21 mph40%29.98 "HgN/A
1:20 PM68 °FScattered clouds.20 mph40%29.98 "HgN/A
12:50 PM68 °FScattered clouds.20 mph43%29.98 "HgN/A
12:20 PM70 °FPassing clouds.18 mph40%29.98 "HgN/A
11:50 AM68 °FScattered clouds.20 mph46%29.98 "HgN/A
11:20 AM63 °FScattered clouds.20 mph64%29.98 "HgN/A
10:50 AM66 °FScattered clouds.21 mph49%29.98 "HgN/A
10:20 AM64 °FScattered clouds.18 mph56%29.98 "HgN/A
Weather by CustomWeather, © 2015

See weather overviewHow to use our weather pages